Location: Lafig�re
(44.4503°N, 4.0357°E)
Time: 16:35:19
(UTC+00:00)

H-2A R/B - Pass Details

Date: 24 September 2020
Orbit: 734 x 836 km, 98.2° (Epoch: 25 October)

Event Time Altitude Azimuth Distance (km) Brightness Sun altitude
Rises 19:25:49 0° 186° (S) 3,171 5.1 -19.9°
Reaches altitude 10° 19:28:12 10° 194° (SSW) 2,262 4.4 -20.3°
Maximum altitude 19:32:51 39° 263° (W) 1,133 3.3 -21.1°
Drops below altitude 10° 19:37:39 10° 332° (NNW) 2,334 5.2 -21.9°
Sets 19:40:09 0° 340° (NNW) 3,283 5.9 -22.3°
